DAL8884 KLGA-KMKE

Flight info

Callsign DAL8884
Flight time N/A
Altitude 38000
Route NEWEL J60 DJB CRL PEGEE GETCH LYSTR SUDDS
Aircraft B752/M-SDE3FGHIM3RWXY/LB1

Departure

Time 2026-05-07 21:46
Airport LaGuardia Airport (KLGA)

Arrival

Time N/A
Airport General Mitchell International Airport (KMKE)
Time Latitude Longitude Altitude Speed Heading
2026-05-07 21:19 40.77746 -73.88065 18 ft 0 kts 126°
2026-05-07 21:42 40.77745 -73.88065 18 ft 0 kts 126°
2026-05-07 21:42 40.77738 -73.88040 18 ft 4 kts 97°
2026-05-07 21:42 40.77751 -73.88002 18 ft 5 kts 60°
2026-05-07 21:42 40.77744 -73.87927 18 ft 7 kts 123°
2026-05-07 21:43 40.77702 -73.87916 18 ft 7 kts 207°
2026-05-07 21:43 40.77626 -73.87976 18 ft 18 kts 212°
2026-05-07 21:43 40.77511 -73.88073 18 ft 20 kts 212°
2026-05-07 21:43 40.77389 -73.88175 18 ft 20 kts 213°
2026-05-07 21:44 40.77265 -73.88281 18 ft 21 kts 212°
2026-05-07 21:44 40.77142 -73.88382 18 ft 17 kts 210°
2026-05-07 21:44 40.77053 -73.88445 19 ft 8 kts 202°
2026-05-07 21:44 40.77027 -73.88452 19 ft 0 kts 183°
2026-05-07 21:45 40.77003 -73.88454 19 ft 8 kts 182°
2026-05-07 21:45 40.76940 -73.88404 19 ft 10 kts 82°
2026-05-07 21:45 40.77006 -73.88338 19 ft 23 kts 32°
2026-05-07 21:46 40.77380 -73.88030 19 ft 103 kts 32°
2026-05-07 21:46 40.78181 -73.87358 234 ft 155 kts 28°
2026-05-07 21:46 40.79059 -73.86697 1235 ft 146 kts 13°
2026-05-07 21:46 40.80080 -73.86697 2036 ft 151 kts 348°
2026-05-07 21:47 40.81040 -73.86929 2727 ft 145 kts 347°
2026-05-07 21:47 40.82107 -73.87181 2901 ft 168 kts 347°
2026-05-07 21:47 40.83358 -73.87484 3154 ft 193 kts 347°
2026-05-07 21:47 40.84709 -73.87947 3591 ft 209 kts 330°
2026-05-07 21:48 40.85762 -73.89319 4079 ft 226 kts 296°
2026-05-07 21:48 40.86155 -73.91400 4588 ft 245 kts 278°
2026-05-07 21:48 40.86321 -73.93725 5137 ft 262 kts 277°
2026-05-07 21:48 40.86503 -73.96081 6048 ft 264 kts 277°
2026-05-07 21:49 40.86660 -73.98490 6929 ft 267 kts 274°
2026-05-07 21:49 40.86769 -74.00893 7944 ft 264 kts 274°
2026-05-07 21:49 40.86888 -74.03306 8925 ft 263 kts 274°
2026-05-07 21:49 40.87005 -74.05640 9955 ft 259 kts 274°
2026-05-07 21:50 40.87127 -74.08043 10691 ft 267 kts 273°
2026-05-07 21:50 40.87252 -74.10533 11113 ft 285 kts 273°
2026-05-07 21:50 40.87390 -74.13260 11538 ft 304 kts 273°
2026-05-07 21:50 40.87534 -74.16104 11967 ft 321 kts 272°
2026-05-07 21:51 40.87685 -74.19119 12409 ft 336 kts 272°
2026-05-07 21:51 40.87839 -74.22151 13440 ft 333 kts 272°
2026-05-07 21:51 40.87992 -74.25230 14125 ft 340 kts 272°
2026-05-07 21:51 40.88147 -74.28348 14956 ft 342 kts 271°
2026-05-07 21:52 40.88301 -74.31464 15738 ft 344 kts 271°
2026-05-07 21:52 40.88456 -74.34606 16479 ft 346 kts 271°
2026-05-07 21:52 40.88610 -74.37771 17200 ft 348 kts 270°
2026-05-07 21:52 40.88764 -74.40943 17880 ft 351 kts 270°
2026-05-07 21:53 40.88919 -74.44173 18522 ft 355 kts 270°
2026-05-07 21:53 40.89075 -74.47416 19291 ft 355 kts 270°
2026-05-07 21:53 40.89229 -74.50659 19975 ft 358 kts 269°
2026-05-07 21:53 40.89386 -74.53966 20648 ft 360 kts 269°
2026-05-07 21:54 40.89541 -74.57270 21320 ft 362 kts 270°
2026-05-07 21:54 40.89693 -74.60528 21934 ft 364 kts 269°
2026-05-07 21:54 40.89850 -74.63884 22578 ft 365 kts 269°
2026-05-07 21:54 40.90004 -74.67217 23110 ft 368 kts 269°
2026-05-07 21:55 40.90158 -74.70586 23728 ft 369 kts 269°
2026-05-07 21:55 40.90314 -74.73997 24278 ft 373 kts 269°
2026-05-07 21:55 40.90468 -74.77409 24827 ft 376 kts 269°
2026-05-07 21:55 40.90623 -74.80830 25414 ft 377 kts 269°
2026-05-07 21:56 40.90777 -74.84287 25828 ft 382 kts 269°
2026-05-07 21:56 40.90935 -74.87825 26393 ft 383 kts 269°
2026-05-07 21:56 40.91090 -74.91331 26840 ft 386 kts 269°
2026-05-07 21:56 40.91243 -74.94857 27260 ft 389 kts 269°
2026-05-07 21:57 40.91399 -74.98416 27688 ft 391 kts 269°
2026-05-07 21:57 40.91555 -75.02032 28066 ft 394 kts 269°
2026-05-07 21:57 40.91711 -75.05653 28514 ft 396 kts 269°
2026-05-07 21:57 40.91867 -75.09316 28882 ft 399 kts 269°
2026-05-07 21:58 40.92020 -75.12967 29255 ft 401 kts 269°
2026-05-07 21:58 40.91919 -75.16643 29686 ft 397 kts 260°
2026-05-07 21:58 40.91307 -75.20199 30188 ft 394 kts 253°
2026-05-07 21:58 40.90535 -75.23668 30674 ft 392 kts 253°
2026-05-07 21:59 40.89758 -75.27139 31169 ft 388 kts 253°
2026-05-07 21:59 40.88988 -75.30517 31551 ft 387 kts 253°
2026-05-07 21:59 40.88207 -75.33914 31927 ft 386 kts 253°
2026-05-07 21:59 40.87414 -75.37331 32328 ft 384 kts 253°
2026-05-07 22:00 40.86642 -75.40641 32755 ft 380 kts 253°
2026-05-07 22:00 40.85865 -75.43959 33108 ft 379 kts 253°
2026-05-07 22:00 40.85083 -75.47280 33479 ft 377 kts 252°
2026-05-07 22:00 40.84308 -75.50565 33845 ft 375 kts 253°
2026-05-07 22:01 40.83534 -75.53844 34092 ft 375 kts 253°
2026-05-07 22:01 40.82760 -75.57105 34380 ft 374 kts 253°
2026-05-07 22:01 40.81978 -75.60399 34698 ft 372 kts 252°
2026-05-07 22:01 40.81212 -75.63615 34982 ft 370 kts 253°
2026-05-07 22:02 40.80439 -75.66866 35222 ft 370 kts 252°
2026-05-07 22:02 40.79665 -75.70100 35360 ft 372 kts 252°
2026-05-07 22:02 40.78892 -75.73338 35726 ft 370 kts 252°
2026-05-07 22:02 40.78122 -75.76554 36000 ft 369 kts 252°
2026-05-07 22:03 40.77347 -75.79788 36136 ft 372 kts 252°
2026-05-07 22:03 40.76577 -75.82995 36460 ft 370 kts 252°
2026-05-07 22:03 40.75801 -75.86225 36657 ft 370 kts 252°
2026-05-07 22:03 40.75021 -75.89462 36846 ft 370 kts 252°
2026-05-07 22:04 40.74248 -75.92676 37051 ft 369 kts 252°
2026-05-07 22:04 40.73466 -75.95906 37225 ft 370 kts 252°
2026-05-07 22:04 40.72686 -75.99138 37379 ft 370 kts 252°
2026-05-07 22:04 40.71910 -76.02343 37549 ft 370 kts 252°
2026-05-07 22:05 40.71120 -76.05595 37759 ft 368 kts 252°
2026-05-07 22:05 40.70353 -76.08764 37849 ft 363 kts 252°
2026-05-07 22:05 40.68800 -76.15143 37859 ft 365 kts 252°
2026-05-07 22:06 40.67331 -76.21530 37842 ft 367 kts 258°
2026-05-07 22:06 40.67359 -76.28277 37874 ft 376 kts 275°
2026-05-07 22:07 40.68346 -76.35075 37848 ft 378 kts 276°
2026-05-07 22:07 40.69340 -76.41869 37857 ft 379 kts 276°
2026-05-07 22:08 40.70344 -76.48680 37852 ft 378 kts 276°
2026-05-07 22:08 40.71344 -76.55473 37858 ft 379 kts 276°
2026-05-07 22:09 40.72344 -76.62268 37852 ft 379 kts 276°
2026-05-07 22:09 40.73343 -76.69078 37847 ft 380 kts 275°
2026-05-07 22:10 40.74337 -76.75881 37846 ft 380 kts 275°
2026-05-07 22:10 40.75335 -76.82733 37842 ft 379 kts 276°
2026-05-07 22:11 40.76329 -76.89596 37863 ft 378 kts 276°
2026-05-07 22:11 40.77314 -76.96425 37848 ft 378 kts 276°
2026-05-07 22:12 40.78289 -77.03208 37845 ft 379 kts 275°
2026-05-07 22:12 40.79270 -77.10070 37843 ft 378 kts 276°
2026-05-07 22:13 40.80233 -77.16835 37852 ft 377 kts 276°
2026-05-07 22:13 40.81203 -77.23675 37844 ft 378 kts 276°
2026-05-07 22:14 40.82158 -77.30441 37860 ft 378 kts 276°
2026-05-07 22:14 40.83113 -77.37239 37837 ft 377 kts 276°
2026-05-07 22:15 40.84060 -77.44014 37856 ft 378 kts 276°
2026-05-07 22:15 40.85007 -77.50816 37857 ft 376 kts 276°
2026-05-07 22:16 40.85947 -77.57596 37852 ft 376 kts 276°
2026-05-07 22:16 40.86879 -77.64350 37862 ft 377 kts 276°
2026-05-07 22:17 40.87810 -77.71130 37878 ft 375 kts 275°
2026-05-07 22:17 40.88734 -77.77891 37882 ft 374 kts 276°
2026-05-07 22:18 40.90109 -77.88004 37870 ft 374 kts 276°
2026-05-07 22:19 40.91022 -77.94759 37876 ft 375 kts 276°
2026-05-07 22:19 40.91911 -78.01498 37873 ft 373 kts 275°
2026-05-07 22:20 40.92750 -78.08276 37877 ft 374 kts 275°
2026-05-07 22:20 40.93587 -78.15040 37873 ft 375 kts 275°
2026-05-07 22:21 40.94415 -78.21764 37875 ft 373 kts 276°
2026-05-07 22:21 40.95241 -78.28505 37875 ft 374 kts 275°
2026-05-07 22:22 40.96069 -78.35308 37879 ft 374 kts 276°
2026-05-07 22:22 40.96892 -78.42088 37876 ft 375 kts 276°
2026-05-07 22:23 40.97709 -78.48855 37865 ft 375 kts 275°
2026-05-07 22:23 40.98526 -78.55669 37868 ft 375 kts 275°
2026-05-07 22:24 40.99333 -78.62430 37863 ft 374 kts 275°
2026-05-07 22:24 41.00136 -78.69194 37892 ft 375 kts 275°
2026-05-07 22:25 41.00943 -78.76019 37890 ft 375 kts 275°
2026-05-07 22:25 41.01741 -78.82810 37896 ft 375 kts 275°
2026-05-07 22:26 41.02533 -78.89585 37891 ft 374 kts 275°
2026-05-07 22:26 41.03323 -78.96374 37899 ft 374 kts 275°